This is the latest recevied weather packets stored in our database for station/object PU5FJO-13. If no packets are shown the sender has not sent any weather packets the latest 10 day(s).
| Time | Temp. | Humidity | Pressure | Rain* | Wind** | Luminosity | Snow |
|---|---|---|---|---|---|---|---|
| 1777911372 | 22.78° C | 62% | 1018.9 hPa | - | - | - | - |
| 1777910772 | 22.78° C | 62% | 1018.8 hPa | - | - | - | - |
| 1777910172 | 23.33° C | 61% | 1018.9 hPa | - | - | - | - |
| 1777909572 | 22.78° C | 63% | 1019.3 hPa | - | - | - | - |
| 1777908972 | 22.78° C | 64% | 1019.5 hPa | - | - | - | - |
| 1777908372 | 22.22° C | 65% | 1019.8 hPa | - | - | - | - |
| 1777907772 | 22.22° C | 63% | 1019.8 hPa | - | - | - | - |
| 1777907172 | 23.33° C | 62% | 1019.9 hPa | - | - | - | - |
| 1777906572 | 22.78° C | 63% | 1020 hPa | - | - | - | - |
| 1777905972 | 22.78° C | 62% | 1020.1 hPa | - | - | - | - |
| 1777905372 | 22.78° C | 63% | 1020.2 hPa | - | - | - | - |
| 1777904772 | 22.22° C | 64% | 1020.4 hPa | - | - | - | - |
| 1777904172 | 22.22° C | 63% | 1020.5 hPa | - | - | - | - |
| 1777903572 | 22.22° C | 62% | 1020.7 hPa | - | - | - | - |
| 1777902972 | 22.22° C | 64% | 1020.6 hPa | - | - | - | - |
| 1777902372 | 22.22° C | 64% | 1020.9 hPa | - | - | - | - |
| 1777901772 | 22.22° C | 64% | 1021.1 hPa | - | - | - | - |
| 1777901172 | 21.67° C | 65% | 1021.2 hPa | - | - | - | - |
| 1777900572 | 21.11° C | 65% | 1021.3 hPa | - | - | - | - |
| 1777899972 | 21.11° C | 64% | 1021.1 hPa | - | - | - | - |
| 1777899372 | 21.67° C | 63% | 1021.1 hPa | - | - | - | - |
| 1777898772 | 21.67° C | 63% | 1021.2 hPa | - | - | - | - |
| 1777898172 | 21.11° C | 63% | 1021.1 hPa | - | - | - | - |
| 1777897572 | 21.67° C | 63% | 1021.1 hPa | - | - | - | - |
| 1777896972 | 21.11° C | 64% | 1021 hPa | - | - | - | - |
* Rain since midnight (hover to see other rain measurements)
** Current wind speed in m/s (hover to see current wind gust speed)